Frying Pan Shoals, NC Buoy (41013)

Conditions for Wednesday

Daily
Weekly
Monthly
Marine Data Graph

Marine & Boating Location Search

Enter a coastal zip code for marine weather.

General Information

Location: 33.436 North -77.743 West
Buoy Type: 3-meter discus buoy
Buoy Hull: 3D55
Payload: AMPS payload
Owned by: NDBC
Windspeed: Measured by obtained from anemometer
Sea Surface: Measured by Intake
Note:
 

Weather and Wave Data

Time Temp Humidity Wind Dominant Wave Wind Wave Wave Swell Pressure
  Air
(°F)
Water
(°F)
  Dir Speed
(kts)
Speed
(mph)
Period
(sec)
Height
(ft)
Range
(ft)
Period
(sec)
Height
(ft)
Range
(ft)
Period
(sec)
Height
(ft)
Range
(ft)
Atmo.
(in)
Tend.
(in)
20:50 62 69 66 WSW 13.6 15.7 7 2.95 exactly 3.0 5 1.64 0.82 - 2.46 7 1.64 0.82 - 2.46 29.94 +0.05
21:50 63 69 66 WSW 13.6 15.7 7 2.95 exactly 3.0 6 1.64 0.82 - 2.46 7 1.64 0.82 - 2.46 29.96 +0.05
22:50 63 69 62 West 13.6 15.7 7 2.95 exactly 3.0 6 1.64 0.82 - 2.46 7 1.64 0.82 - 2.46 29.96 +0.04
23:50 64 69 53 NW 11.7 13.4 7 2.95 exactly 3.0 5 1.64 0.82 - 2.46 7 1.64 0.82 - 2.46 29.96 +0.02
00:50 64 69 33 NNW 11.7 13.4 8 2.62 exactly 2.6 3 1.64 0.82 - 2.46 8 1.64 0.82 - 2.46 29.96 -
01:50 63 69 28 North 17.5 20.1 8 2.62 exactly 2.6 5 1.64 0.82 - 2.46 8 1.64 0.82 - 2.46 29.96 -
02:50 61 69 28 North 19.4 22.4 7 2.62 exactly 2.6 3 1.64 0.82 - 2.46 7 1.64 0.82 - 2.46 29.97 +0.01
03:50 59 69 30 North 19.4 22.4 7 2.95 exactly 3.0 3 1.64 0.82 - 2.46 7 1.64 0.82 - 2.46 29.98 +0.02
05:50 57 69 28 NNE 17.5 20.1 4 3.94 exactly 3.9 4 3.28 2.46 - 4.10 7 1.64 0.82 - 2.46 30.01 +0.04
06:50 56 68 22 NNE 21.4 24.6 4 4.27 exactly 4.3 4 3.28 2.46 - 4.10 8 1.64 0.82 - 2.46 30.03 +0.04
07:50 55 68 21 NNE 19.4 22.4 5 4.59 exactly 4.6 5 4.92 4.10 - 5.74 12 1.64 0.82 - 2.46 30.05 +0.07
08:50 55 68 24 NE 17.5 20.1 5 4.27 exactly 4.3 5 4.92 4.10 - 5.74 12 1.64 0.82 - 2.46 30.06 +0.06
09:50 55 68 27 NNE 17.5 20.1 5 4.27 exactly 4.3 5 3.28 2.46 - 4.10 12 1.64 0.82 - 2.46 30.07 +0.04
10:50 54 68 29 NNE 19.4 22.4 5 4.27 exactly 4.3 5 4.92 4.10 - 5.74 12 1.64 0.82 - 2.46 30.08 +0.03
11:50 53 68 29 NNE 17.5 20.1 5 4.27 exactly 4.3 5 4.92 4.10 - 5.74 12 1.64 0.82 - 2.46 30.07 -
12:50 53 68 25 NNE 17.5 20.1 5 4.27 exactly 4.3 5 3.28 2.46 - 4.10 12 1.64 0.82 - 2.46 30.05 -0.02
13:50 52 68 30 NE 15.6 17.9 5 4.59 exactly 4.6 5 4.92 4.10 - 5.74 8 1.64 0.82 - 2.46 30.03 -0.05
14:50 53 68 31 NNE 15.6 17.9 5 3.94 exactly 3.9 5 3.28 2.46 - 4.10 8 1.64 0.82 - 2.46 29.99 -0.07
15:50 52 68 34 NNE 15.6 17.9 5 3.94 exactly 3.9 5 3.28 2.46 - 4.10 8 1.64 0.82 - 2.46 29.95 -0.10
16:50 53 68 33 NE 13.6 15.7 5 3.61 exactly 3.6 5 3.28 2.46 - 4.10 8 1.64 0.82 - 2.46 29.92 -0.11
17:50 54 68 39 ENE 13.6 15.7 5 3.61 exactly 3.6 5 3.28 2.46 - 4.10 8 1.64 0.82 - 2.46 29.89 -0.10
18:50 55 68 40 NE 11.7 13.4 6 3.28 exactly 3.3 5 3.28 2.46 - 4.10 6 1.64 0.82 - 2.46 29.89 -0.06
19:50 56 68 43 NE 9.7 11.2 5 3.28 exactly 3.3 4 1.64 0.82 - 2.46 5 3.28 2.46 - 4.10 29.88 -0.03
20:50 56 68 51 ENE 9.7 11.2 5 2.95 exactly 3.0 4 1.64 0.82 - 2.46 5 1.64 0.82 - 2.46 29.85 -0.04
21:50 58 68 51 North 11.7 13.4 6 2.62 exactly 2.6 4 1.64 0.82 - 2.46 6 1.64 0.82 - 2.46 29.84 -0.06
22:50 56 68 55 North 9.7 11.2 8 2.62 exactly 2.6 4 1.64 0.82 - 2.46 8 1.64 0.82 - 2.46 29.83 -0.05
23:50 56 68 57 North 7.8 8.9 5 2.95 exactly 3.0 4 1.64 0.82 - 2.46 5 3.28 2.46 - 4.10 29.81 -0.04
00:50 56 67 54 North 7.8 8.9 6 2.62 exactly 2.6 4 1.64 0.82 - 2.46 6 1.64 0.82 - 2.46 29.79 -0.05
01:50 56 67 53 NNW 9.7 11.2 7 2.30 exactly 2.3 4 1.64 0.82 - 2.46 7 1.64 0.82 - 2.46 29.76 -0.07
02:50 56 67 42 West 7.8 8.9 5 2.30 exactly 2.3 3 1.64 0.82 - 2.46 5 1.64 0.82 - 2.46 29.75 -0.07
03:50 58 68 22 West 17.5 20.1 8 2.30 exactly 2.3 6 1.64 0.82 - 2.46 8 1.64 0.82 - 2.46 29.72 -0.06

Detailed Wave Spectra

Time Water Depth Wave Height Spectral Peak Period Average Wave Period Sampling Interval Wave Record
20:00 79 ft 2.85 ft 6.7 sec 5.0 sec 0.6 sec 2400 sec
21:00 79 ft 2.99 ft 7.1 sec 5.1 sec 0.6 sec 2400 sec
22:00 79 ft 2.79 ft 6.7 sec 4.6 sec 0.6 sec 2400 sec
23:00 79 ft 2.85 ft 6.7 sec 4.6 sec 0.6 sec 2400 sec
00:00 79 ft 2.92 ft 7.1 sec 5.0 sec 0.6 sec 2400 sec
03:00 79 ft 2.79 ft 7.1 sec 4.1 sec 0.6 sec 2400 sec
04:00 79 ft 2.85 ft 7.1 sec 3.9 sec 0.6 sec 2400 sec
05:00 79 ft 3.44 ft 3.6 sec 3.9 sec 0.6 sec 2400 sec
06:00 79 ft 3.87 ft 4.0 sec 4.0 sec 0.6 sec 2400 sec
08:00 79 ft 4.56 ft 4.8 sec 4.3 sec 0.6 sec 2400 sec
09:00 79 ft 4.36 ft 5.0 sec 4.3 sec 0.6 sec 2400 sec
11:00 79 ft 4.33 ft 5.0 sec 4.3 sec 0.6 sec 2400 sec
12:00 79 ft 4.30 ft 5.0 sec 4.4 sec 0.6 sec 2400 sec
13:00 79 ft 4.20 ft 5.3 sec 4.4 sec 0.6 sec 2400 sec
14:00 79 ft 4.43 ft 5.3 sec 4.5 sec 0.6 sec 2400 sec
15:00 79 ft 4.07 ft 5.3 sec 4.5 sec 0.6 sec 2400 sec
16:00 79 ft 4.07 ft 5.3 sec 4.4 sec 0.6 sec 2400 sec
19:00 79 ft 3.31 ft 6.3 sec 4.5 sec 0.6 sec 2400 sec
20:00 79 ft 3.41 ft 4.8 sec 4.5 sec 0.6 sec 2400 sec
22:00 79 ft 2.69 ft 6.3 sec 4.6 sec 0.6 sec 2400 sec
23:00 79 ft 2.79 ft 8.3 sec 4.5 sec 0.6 sec 2400 sec
00:00 79 ft 2.95 ft 5.3 sec 4.7 sec 0.6 sec 2400 sec
01:00 79 ft 2.76 ft 6.3 sec 4.8 sec 0.6 sec 2400 sec